Погода в Теляково

Россия / Тульская область     54°32′23″N   37°54′13″E
темп.,
°C
ветер,
м/с
пор.,
м/с
влажн.,
%
обл.,
%
осадки,
мм/ч
давл.,
гПа
погр.,
м
4 декабря, сб
сб400:000з51193100 1.2 1001688
03:00−1зюз6128973 1.2 1003632
06:00−4зюз7149022 0.0 1004527
09:00−4зюз81588100 0.0 1006734
12:00−2зюз8128396 0.1 10081088
15:00−3з7138476 0.1 1009782
18:00−4зюз612905 0.0 1011500
21:00−5зюз4109488 0.0 1012356
5 декабря, вс
вс500:00−4юз369371 0.0 1013199
03:00−4юз499694 0.1 1014303
06:00−4юз3896100 0.0 1014235
09:00−3ююз3792100 0.0 1015228
12:00−1юз4889100 0.0 1016381
15:00−2ююз379081 0.0 1016309
18:00−4ююз379561 0.0 1017112
21:00−5ююз36955 0.0 1018112
6 декабря, пн
пн600:00−5ююз2595100 0.0 101993
03:00−5ю2594100 0.0 102088
06:00−4ю2491100 0.0 102088
09:00−4ююв3686100 0.0 1021142
12:00−2ююв3778100 0.0 1020299
15:00−2юв3778100 0.0 1021253
18:00−3юв498098 0.0 1020272
21:00−4юв4108299 0.0 1020248
7 декабря, вт
вт700:00−3юв51086100 0.0 1019313
03:00−2юв51297100 0.6 1017423
06:00−2юв71597100 1.6 1015545
09:00−1ююв81695100 4.6 1013629
12:000ю61298100 0.3 1012453
15:00+1ю41099100 0.6 1011298
18:00+1ю3699100 0.5 1011177
21:00+1ю12100100 3.0 101053
8 декабря, ср
ср800:00+1в11100100 2.6 100933
03:000с3599100 5.4 1010150
06:000ссз479899 2.1 1012283
09:00−3с479688 2.2 1014284
12:00−4ссв4693100 0.0 1016240
15:00−5ссв5792100 0.1 1016265
18:00−6ссв5895100 0.5 1017292
21:00−6ссв61095100 0.6 1017305